TimeCST,TemperatureF,Dew PointF,Humidity,Sea Level PressureIn,VisibilityMPH,Wind Direction,Wind SpeedMPH,Gust SpeedMPH,PrecipitationIn,Events,Conditions,WindDirDegrees,DateUTC
12:15 AM,32.0,30.2,93,29.60,6.0,SSE,9.2,-,N/A,,Clear,160,2013-03-04 06:15:00
12:35 AM,30.2,28.4,93,29.61,5.0,South,6.9,-,N/A,,Clear,180,2013-03-04 06:35:00
12:55 AM,32.0,30.2,93,29.60,5.0,South,9.2,-,N/A,,Clear,180,2013-03-04 06:55:00
1:15 AM,32.0,30.2,93,29.60,5.0,SSW,6.9,-,N/A,,Clear,200,2013-03-04 07:15:00
1:35 AM,30.2,30.2,100,29.60,5.0,SSW,10.4,-,N/A,,Clear,200,2013-03-04 07:35:00
1:55 AM,30.2,28.4,93,29.59,5.0,SSW,8.1,-,N/A,,Clear,200,2013-03-04 07:55:00
2:15 AM,32.0,30.2,93,29.60,7.0,SSW,6.9,-,N/A,,Clear,200,2013-03-04 08:15:00
2:35 AM,33.8,30.2,87,29.59,7.0,SSW,9.2,-,N/A,,Clear,210,2013-03-04 08:35:00
2:55 AM,32.0,30.2,93,29.59,7.0,SSW,9.2,-,N/A,,Clear,210,2013-03-04 08:55:00
3:15 AM,32.0,30.2,93,29.59,7.0,SW,6.9,-,N/A,,Clear,220,2013-03-04 09:15:00
3:35 AM,33.8,30.2,87,29.59,8.0,West,4.6,-,N/A,,Clear,260,2013-03-04 09:35:00
3:55 AM,35.6,30.2,81,29.59,10.0,SW,8.1,-,N/A,,Clear,230,2013-03-04 09:55:00
4:15 AM,33.8,30.2,87,29.61,10.0,West,4.6,-,N/A,,Clear,270,2013-03-04 10:15:00
4:35 AM,35.6,32.0,87,29.62,10.0,WNW,10.4,-,N/A,,Clear,290,2013-03-04 10:35:00
4:55 AM,37.4,30.2,75,29.62,10.0,WNW,12.7,-,N/A,,Clear,290,2013-03-04 10:55:00
5:15 AM,37.4,32.0,81,29.64,10.0,WNW,21.9,28.8,N/A,,Clear,290,2013-03-04 11:15:00
5:35 AM,37.4,32.0,81,29.65,10.0,WNW,20.7,29.9,N/A,,Clear,300,2013-03-04 11:35:00
5:55 AM,37.4,33.8,87,29.65,10.0,WNW,24.2,31.1,N/A,,Mostly Cloudy,300,2013-03-04 11:55:00
6:15 AM,37.4,33.8,87,29.66,10.0,NW,26.5,34.5,N/A,,Overcast,310,2013-03-04 12:15:00
6:35 AM,37.4,33.8,87,29.67,10.0,NW,21.9,31.1,N/A,,Overcast,320,2013-03-04 12:35:00
6:55 AM,37.4,32.0,81,29.68,10.0,NW,26.5,34.5,N/A,,Overcast,310,2013-03-04 12:55:00
7:15 AM,35.6,32.0,87,29.69,10.0,NW,27.6,33.4,N/A,,Overcast,310,2013-03-04 13:15:00
7:35 AM,37.4,32.0,81,29.70,10.0,NW,23.0,34.5,N/A,,Overcast,320,2013-03-04 13:35:00
7:55 AM,37.4,32.0,81,29.71,10.0,NW,25.3,33.4,N/A,,Overcast,320,2013-03-04 13:55:00
8:15 AM,37.4,32.0,81,29.72,10.0,NW,23.0,32.2,N/A,,Overcast,320,2013-03-04 14:15:00
8:35 AM,37.4,32.0,81,29.73,10.0,NW,32.2,39.1,N/A,,Overcast,320,2013-03-04 14:35:00
8:55 AM,37.4,30.2,75,29.74,10.0,NW,23.0,39.1,N/A,,Overcast,320,2013-03-04 14:55:00
9:15 AM,37.4,32.0,81,29.76,10.0,NW,23.0,28.8,N/A,,Overcast,320,2013-03-04 15:15:00
9:35 AM,39.2,30.2,70,29.75,10.0,NNW,27.6,36.8,N/A,,Overcast,340,2013-03-04 15:35:00
9:55 AM,39.2,32.0,75,29.76,10.0,NNW,24.2,29.9,N/A,,Overcast,340,2013-03-04 15:55:00
10:15 AM,41.0,32.0,70,29.76,10.0,NNW,29.9,33.4,N/A,,Mostly Cloudy,340,2013-03-04 16:15:00
10:35 AM,41.0,33.8,76,29.76,10.0,NNW,26.5,32.2,N/A,,Mostly Cloudy,340,2013-03-04 16:35:00
10:55 AM,41.0,30.2,65,29.76,10.0,NNW,23.0,29.9,N/A,,Scattered Clouds,340,2013-03-04 16:55:00
11:15 AM,41.0,30.2,65,29.76,10.0,North,29.9,35.7,N/A,,Clear,10,2013-03-04 17:15:00
11:35 AM,44.6,32.0,61,29.76,10.0,North,24.2,31.1,N/A,,Partly Cloudy,350,2013-03-04 17:35:00
11:55 AM,44.6,30.2,57,29.76,10.0,North,27.6,38.0,N/A,,Partly Cloudy,360,2013-03-04 17:55:00
12:15 PM,44.6,30.2,57,29.77,10.0,North,21.9,29.9,N/A,,Clear,10,2013-03-04 18:15:00
12:55 PM,48.2,28.4,46,29.78,10.0,North,21.9,26.5,N/A,,Clear,10,2013-03-04 18:55:00
1:15 PM,46.4,26.6,46,29.78,10.0,North,21.9,25.3,N/A,,Partly Cloudy,10,2013-03-04 19:15:00
1:35 PM,48.2,24.8,40,29.78,10.0,North,21.9,27.6,N/A,,Partly Cloudy,350,2013-03-04 19:35:00
1:55 PM,46.4,24.8,43,29.77,10.0,North,20.7,25.3,N/A,,Mostly Cloudy,360,2013-03-04 19:55:00
2:15 PM,44.6,24.8,46,29.77,10.0,North,18.4,-,N/A,,Mostly Cloudy,10,2013-03-04 20:15:00
2:35 PM,46.4,26.6,46,29.77,10.0,North,19.6,-,N/A,,Overcast,10,2013-03-04 20:35:00
2:55 PM,44.6,23.0,43,29.80,10.0,North,18.4,-,N/A,,Overcast,360,2013-03-04 20:55:00
3:15 PM,44.6,24.8,46,29.83,10.0,North,12.7,-,N/A,,Overcast,350,2013-03-04 21:15:00
3:35 PM,44.6,24.8,46,29.85,10.0,NNW,9.2,-,N/A,,Overcast,340,2013-03-04 21:35:00
3:55 PM,42.8,24.8,49,29.85,10.0,NW,8.1,-,N/A,,Overcast,320,2013-03-04 21:55:00
4:15 PM,42.8,26.6,53,29.87,10.0,NNW,11.5,24.2,N/A,,Mostly Cloudy,330,2013-03-04 22:15:00
4:35 PM,41.0,28.4,61,29.88,10.0,NNW,10.4,-,N/A,,Overcast,330,2013-03-04 22:35:00
4:55 PM,42.8,30.2,61,29.89,10.0,WNW,18.4,23.0,N/A,,Overcast,300,2013-03-04 22:55:00
5:15 PM,41.0,30.2,65,29.91,10.0,WNW,11.5,-,N/A,,Overcast,300,2013-03-04 23:15:00
5:35 PM,39.2,32.0,75,29.93,10.0,WNW,9.2,-,N/A,,Overcast,300,2013-03-04 23:35:00
5:55 PM,39.2,32.0,75,29.95,10.0,WNW,12.7,18.4,N/A,,Overcast,290,2013-03-04 23:55:00
6:15 PM,39.2,28.4,65,29.96,10.0,NW,18.4,21.9,N/A,,Overcast,310,2013-03-05 00:15:00
6:35 PM,39.2,17.6,42,29.96,10.0,WNW,13.8,19.6,N/A,,Mostly Cloudy,300,2013-03-05 00:35:00
6:55 PM,37.4,15.8,41,29.97,10.0,WNW,19.6,25.3,N/A,,Scattered Clouds,300,2013-03-05 00:55:00
7:15 PM,37.4,15.8,41,29.98,10.0,WNW,21.9,28.8,N/A,,Mostly Cloudy,300,2013-03-05 01:15:00
7:35 PM,37.4,17.6,45,30.00,10.0,WNW,24.2,28.8,N/A,,Overcast,300,2013-03-05 01:35:00
7:55 PM,35.6,15.8,44,30.01,10.0,WNW,21.9,29.9,N/A,,Overcast,300,2013-03-05 01:55:00
8:15 PM,35.6,15.8,44,30.02,10.0,WNW,17.3,-,N/A,,Scattered Clouds,300,2013-03-05 02:15:00
8:35 PM,35.6,17.6,48,30.03,10.0,NW,17.3,24.2,N/A,,Clear,310,2013-03-05 02:35:00
8:55 PM,33.8,17.6,52,30.04,10.0,NNW,21.9,27.6,N/A,,Clear,340,2013-03-05 02:55:00
9:15 PM,33.8,15.8,48,30.06,10.0,NNW,18.4,29.9,N/A,,Clear,340,2013-03-05 03:15:00
9:35 PM,30.2,15.8,55,30.07,10.0,NNW,24.2,27.6,N/A,,Clear,330,2013-03-05 03:35:00
9:55 PM,30.2,12.2,47,30.08,10.0,NW,24.2,31.1,N/A,,Clear,320,2013-03-05 03:55:00
10:15 PM,30.2,10.4,44,30.10,10.0,NW,21.9,28.8,N/A,,Partly Cloudy,320,2013-03-05 04:15:00
10:35 PM,28.4,10.4,47,30.10,10.0,NW,20.7,28.8,N/A,,Clear,320,2013-03-05 04:35:00
10:55 PM,28.4,10.4,47,30.11,10.0,NW,20.7,27.6,N/A,,Clear,320,2013-03-05 04:55:00
11:15 PM,26.6,12.2,55,30.11,10.0,NW,18.4,25.3,N/A,,Clear,320,2013-03-05 05:15:00
11:35 PM,26.6,10.4,51,30.12,10.0,NW,17.3,27.6,N/A,,Clear,310,2013-03-05 05:35:00
11:55 PM,26.6,12.2,55,30.13,10.0,NW,20.7,27.6,N/A,,Clear,320,2013-03-05 05:55:00